Skip Page Navigation
NASA JPL Caltech
NASA Logo - Jet Propulsion Laboratory + View the NASA Portal
+ Center for Near-Earth Object Studies
JPL Home Earth Solar System Stars & Galaxies Technology
JPL Solar System Dynamics
BODIES ORBITS EPHEMERIDES TOOLS PHYSICAL DATA DISCOVERY FAQ SITE MAP
JPL Small-Body Database Browser
Search: [ help ]  
118606 (2000 GG120)
Classification: Main-belt Asteroid          SPK-ID: 2118606
Ephemeris | Orbit Diagram | Orbital Elements | Mission Design | Physical Parameters | Discovery Circumstances ]

[ show orbit diagram ]
Orbital Elements at Epoch 2459200.5 (2020-Dec-17.0) TDB
Reference: JPL 17 (heliocentric ecliptic J2000)
 Element Value Uncertainty (1-sigma)   Units 
e .01454199982741821 5.1187e-08  
a 2.415444081620186 1.083e-08 au
q 2.380318694202127 1.1909e-07 au
i .2800812041453545 5.0957e-06 deg
node 1.037730080932754 0.00063743 deg
peri 199.6186867702696 0.00064851 deg
M 176.7909793740996 0.0001199 deg
tp 2458527.133495080463
(2019-Feb-12.63349508)
0.0004561 TDB
period 1371.178227697217
3.75
9.2222e-06
2.525e-08
d
yr
n .262547926103371 1.7658e-09 deg/d
Q 2.450569469038245 1.0988e-08 au
  Orbit Determination Parameters
   # obs. used (total)      491  
   data-arc span      8053 days (22.05 yr)  
   first obs. used      1998-12-19  
   last obs. used      2021-01-05  
   planetary ephem.      DE431  
   SB-pert. ephem.      SB431-N16  
   condition code      0  
   norm. resid. RMS      .59168  
   source      ORB  
   producer      Otto Matic  
   solution date      2021-Feb-24 09:20:11  

Additional Information
 Earth MOID = 1.37334 au 
 Jupiter MOID = 2.50472 au 
 T_jup = 3.517 
[ show covariance matrix ]

Ephemeris | Orbit Diagram | Orbital Elements | Mission Design | Physical Parameters | Discovery Circumstances ]

Physical Parameter Table
Parameter Symbol Value Units Sigma Reference Notes
absolute magnitude H 16.88   n/a E2021B55  

118606 (2000 GG120)          Discovered 2000-Apr-05 by Spacewatch at Kitt Peak
Reference: 20051116/Numbers.arcLast Updated: 2005-11-21

Alternate Designations
 2000 GG120 = 1998 YT13 
Ephemeris | Orbit Diagram | Orbital Elements | Mission Design | Physical Parameters | Discovery Circumstances ]
ABOUT SSD CREDITS/AWARDS PRIVACY/COPYRIGHT GLOSSARY LINKS
FirstGov 2021-Apr-13 04:58 UT
(server date/time)  
NASA Home Page
Site Manager:   Ryan S. Park
Webmaster  Alan B. Chamberlin